• En España
  • Lista de países
  • Para 7 días
  • Temperatura del agua
  • Mapa Satelital
  • El tiempo en el mapa
  • Informadores
  • user-avatar
    Iniciar sesión

    Tiempo cada hora Solovcovo

    Hoy, 18 Agosto, Sábado

    Tiempo Temperatura Precipitaciones Viento Presión Humedad
    00:00 +12°C° 0 mm 2 mps 757 mmHg 86%
    01:00 +10°C° 0 mm 2 mps 757 mmHg 87%
    02:00 +10°C° 0 mm 2 mps 758 mmHg 88%
    03:00 +9°C° 0 mm 2 mps 758 mmHg 90%
    04:00 +10°C° 0 mm 2 mps 758 mmHg 88%
    05:00 +10°C° 0 mm 2 mps 758 mmHg 86%
    06:00 +12°C° 0 mm 2 mps 758 mmHg 84%
    07:00 +12°C° 0 mm 3 mps 759 mmHg 77%
    08:00 +14°C° 0 mm 3 mps 759 mmHg 69%
    09:00 +17°C° 0 mm 4 mps 759 mmHg 62%
    10:00 +17°C° 0 mm 4 mps 759 mmHg 60%
    11:00 +18°C° 0 mm 4 mps 758 mmHg 57%
    12:00 +19°C° 0 mm 4 mps 758 mmHg 55%
    13:00 +19°C° 0 mm 4 mps 758 mmHg 55%
    14:00 +19°C° 0 mm 4 mps 758 mmHg 55%
    15:00 +20°C° 0 mm 4 mps 758 mmHg 55%
    16:00 +19°C° 0 mm 3 mps 758 mmHg 60%
    17:00 +18°C° 0 mm 3 mps 758 mmHg 65%
    18:00 +17°C° 0 mm 2 mps 758 mmHg 70%
    19:00 +16°C° 0 mm 2 mps 758 mmHg 74%
    20:00 +14°C° 0 mm 2 mps 758 mmHg 78%
    21:00 +13°C° 0 mm 2 mps 758 mmHg 81%
    22:00 +12°C° 0 mm 1 mps 758 mmHg 83%
    23:00 +12°C° 0 mm 1 mps 758 mmHg 84%

    Mañana, 19 Agosto, Domingo

    Tiempo Temperatura Precipitaciones Viento Presión Humedad
    00:00 +11°C° 0 mm 1 mps 759 mmHg 85%
    01:00 +11°C° 0 mm 1 mps 759 mmHg 85%
    02:00 +10°C° 0 mm 1 mps 759 mmHg 86%
    03:00 +10°C° 0 mm 1 mps 759 mmHg 86%
    04:00 +11°C° 0 mm 1 mps 759 mmHg 84%
    05:00 +11°C° 0 mm 1 mps 759 mmHg 83%
    06:00 +12°C° 0 mm 1 mps 759 mmHg 81%
    07:00 +14°C° 0 mm 1 mps 759 mmHg 74%
    08:00 +16°C° 0 mm 1 mps 759 mmHg 67%
    09:00 +19°C° 0 mm 1 mps 759 mmHg 60%
    10:00 +20°C° 0 mm 1 mps 759 mmHg 56%
    11:00 +21°C° 0 mm 1 mps 758 mmHg 52%
    12:00 +22°C° 0 mm 1 mps 758 mmHg 49%
    13:00 +22°C° 0 mm 1 mps 758 mmHg 48%
    14:00 +22°C° 0 mm 1 mps 757 mmHg 47%
    15:00 +23°C° 0 mm 1 mps 757 mmHg 46%
    16:00 +22°C° 0 mm 1 mps 757 mmHg 51%
    17:00 +21°C° 0 mm 1 mps 756 mmHg 56%
    18:00 +20°C° 0 mm 1 mps 756 mmHg 61%
    19:00 +18°C° 0 mm 1 mps 756 mmHg 64%
    20:00 +16°C° 0 mm 1 mps 756 mmHg 67%
    21:00 +14°C° 0 mm 1 mps 756 mmHg 71%
    22:00 +14°C° 0 mm 2 mps 756 mmHg 73%
    23:00 +13°C° 0 mm 2 mps 756 mmHg 74%

    Pasado mañana, 20 Agosto, Lunes

    Tiempo Temperatura Precipitaciones Viento Presión Humedad
    00:00 +13°C° 0 mm 2 mps 756 mmHg 76%
    01:00 +13°C° 0 mm 2 mps 756 mmHg 78%
    02:00 +13°C° 0 mm 2 mps 756 mmHg 80%
    03:00 +12°C° 0 mm 2 mps 755 mmHg 81%
    04:00 +13°C° 0 mm 2 mps 755 mmHg 81%
    05:00 +13°C° 0 mm 2 mps 755 mmHg 80%
    06:00 +14°C° 0 mm 2 mps 755 mmHg 79%
    07:00 +16°C° 0 mm 3 mps 755 mmHg 75%
    08:00 +18°C° 0 mm 3 mps 755 mmHg 70%
    09:00 +19°C° 0 mm 3 mps 755 mmHg 65%
    10:00 +21°C° 0 mm 4 mps 754 mmHg 62%
    11:00 +22°C° 0 mm 4 mps 754 mmHg 59%
    12:00 +23°C° 0 mm 4 mps 754 mmHg 56%
    13:00 +23°C° 0 mm 5 mps 753 mmHg 56%
    14:00 +25°C° 0 mm 5 mps 753 mmHg 55%
    15:00 +25°C° 0 mm 5 mps 753 mmHg 55%
    16:00 +23°C° 0,1 mm 4 mps 752 mmHg 62%
    17:00 +22°C° 0,1 mm 4 mps 752 mmHg 68%
    18:00 +21°C° 0,1 mm 3 mps 752 mmHg 74%
    19:00 +20°C° 0,3 mm 3 mps 752 mmHg 79%
    20:00 +19°C° 0,3 mm 3 mps 752 mmHg 83%
    21:00 +18°C° 0,3 mm 3 mps 751 mmHg 87%
    22:00 +18°C° 0,4 mm 3 mps 751 mmHg 88%
    23:00 +18°C° 0,4 mm 3 mps 751 mmHg 89%

    21 Agosto, Martes

    Tiempo Temperatura Precipitaciones Viento Presión Humedad
    00:00 +17°C° 0,4 mm 3 mps 751 mmHg 90%
    01:00 +17°C° 0,1 mm 3 mps 751 mmHg 92%
    02:00 +17°C° 0,1 mm 3 mps 751 mmHg 93%
    03:00 +16°C° 0,1 mm 3 mps 750 mmHg 94%
    04:00 +17°C° 0,1 mm 3 mps 750 mmHg 94%
    05:00 +17°C° 0,1 mm 3 mps 750 mmHg 93%
    06:00 +17°C° 0,1 mm 3 mps 750 mmHg 93%
    07:00 +19°C° 0,1 mm 3 mps 750 mmHg 88%
    08:00 +20°C° 0,1 mm 3 mps 751 mmHg 83%
    09:00 +22°C° 0,1 mm 3 mps 751 mmHg 79%
    10:00 +22°C° 0,4 mm 4 mps 751 mmHg 74%
    11:00 +23°C° 0,4 mm 4 mps 750 mmHg 69%
    12:00 +25°C° 0,4 mm 5 mps 750 mmHg 64%
    13:00 +26°C° 0 mm 5 mps 750 mmHg 62%
    14:00 +26°C° 0 mm 5 mps 750 mmHg 60%
    15:00 +26°C° 0 mm 5 mps 750 mmHg 58%
    16:00 +25°C° 0 mm 4 mps 750 mmHg 63%
    17:00 +24°C° 0 mm 3 mps 750 mmHg 68%
    18:00 +23°C° 0 mm 2 mps 750 mmHg 73%
    19:00 +21°C° 0 mm 2 mps 750 mmHg 77%
    20:00 +19°C° 0 mm 2 mps 750 mmHg 81%
    21:00 +19°C° 0 mm 1 mps 750 mmHg 86%
    22:00 +19°C° 0 mm 1 mps 750 mmHg 87%
    23:00 +18°C° 0 mm 1 mps 750 mmHg 89%

    22 Agosto, Miércoles

    Tiempo Temperatura Precipitaciones Viento Presión Humedad
    00:00 +18°C° 0 mm 1 mps 749 mmHg 90%
    01:00 +17°C° 0 mm 2 mps 749 mmHg 92%
    02:00 +17°C° 0 mm 2 mps 749 mmHg 93%
    03:00 +16°C° 0 mm 2 mps 748 mmHg 94%
    04:00 +17°C° 0 mm 3 mps 748 mmHg 93%
    05:00 +17°C° 0 mm 4 mps 748 mmHg 92%
    06:00 +18°C° 0 mm 4 mps 747 mmHg 91%
    07:00 +19°C° 0 mm 5 mps 747 mmHg 85%
    08:00 +21°C° 0 mm 6 mps 746 mmHg 79%
    09:00 +22°C° 0 mm 7 mps 746 mmHg 73%
    10:00 +22°C° 0,2 mm 7 mps 745 mmHg 73%
    11:00 +23°C° 0,2 mm 7 mps 745 mmHg 72%
    12:00 +23°C° 0,2 mm 8 mps 744 mmHg 72%
    13:00 +22°C° 0,7 mm 8 mps 744 mmHg 75%
    14:00 +22°C° 0,7 mm 7 mps 744 mmHg 78%
    15:00 +21°C° 0,7 mm 7 mps 744 mmHg 81%
    16:00 +20°C° 0,2 mm 7 mps 745 mmHg 78%
    17:00 +20°C° 0,2 mm 6 mps 745 mmHg 74%
    18:00 +19°C° 0,2 mm 6 mps 745 mmHg 71%
    19:00 +16°C° 0 mm 6 mps 746 mmHg 72%
    20:00 +15°C° 0 mm 5 mps 746 mmHg 74%
    21:00 +13°C° 0 mm 5 mps 747 mmHg 76%
    22:00 +13°C° 0 mm 5 mps 747 mmHg 77%
    23:00 +13°C° 0 mm 5 mps 747 mmHg 78%

    23 Agosto, Jueves

    Tiempo Temperatura Precipitaciones Viento Presión Humedad
    00:00 +13°C° 0 mm 5 mps 747 mmHg 79%
    01:00 +12°C° 0 mm 5 mps 748 mmHg 81%
    02:00 +12°C° 0 mm 5 mps 748 mmHg 83%
    03:00 +12°C° 0 mm 5 mps 748 mmHg 85%
    04:00 +12°C° 0 mm 5 mps 748 mmHg 85%
    05:00 +12°C° 0 mm 5 mps 749 mmHg 86%
    06:00 +12°C° 0 mm 5 mps 749 mmHg 86%
    07:00 +13°C° 0 mm 5 mps 749 mmHg 80%
    08:00 +14°C° 0 mm 6 mps 749 mmHg 74%
    09:00 +16°C° 0 mm 6 mps 749 mmHg 68%
    10:00 +17°C° 0 mm 6 mps 749 mmHg 63%
    11:00 +19°C° 0 mm 6 mps 749 mmHg 58%
    12:00 +20°C° 0 mm 6 mps 749 mmHg 54%
    13:00 +21°C° 0 mm 6 mps 749 mmHg 53%
    14:00 +21°C° 0 mm 5 mps 749 mmHg 51%
    15:00 +21°C° 0 mm 5 mps 749 mmHg 50%
    16:00 +20°C° 0 mm 4 mps 749 mmHg 56%
    17:00 +19°C° 0 mm 4 mps 749 mmHg 62%
    18:00 +19°C° 0 mm 3 mps 749 mmHg 68%
    19:00 +18°C° 0,2 mm 3 mps 748 mmHg 71%
    20:00 +17°C° 0,2 mm 3 mps 748 mmHg 74%
    21:00 +17°C° 0,2 mm 3 mps 748 mmHg 77%
    22:00 +17°C° 0,1 mm 4 mps 748 mmHg 80%
    23:00 +15°C° 0,1 mm 4 mps 747 mmHg 82%
    Mostrar más